DW1024 Weather Reports


time (UTC)temp
C
wind
direction
speed
KPH
gust
KPH
rain 1hr
cm
rain 24hr
cm
rain mn
cm
humidity
%
barometer
mb
20260901204630 14 133 0.0 0.0 0.00 0.00 0.00 86 1023.4
20260901203131 15 133 0.0 0.0 0.00 0.00 0.00 85 1023.3
20260901201631 15 133 0.0 0.0 0.00 0.00 0.00 83 1023.2
20260901200130 16 133 0.0 1.6 0.00 0.00 0.00 81 1023.1
20260901194629 16 133 0.0 0.0 0.00 0.00 0.00 79 1023.0
20260901193136 16 133 0.0 0.0 0.00 0.00 0.00 78 1023.0
20260901191630 17 133 0.0 0.0 0.00 0.00 0.00 75 1022.8
20260901190130 18 133 0.0 1.6 0.00 0.00 0.00 73 1022.7
20260901184630 18 133 0.0 0.0 0.00 0.00 0.00 71 1022.5
20260901183136 19 133 0.0 3.2 0.00 0.00 0.00 68 1022.5
20260901181632 19 331 0.0 3.2 0.00 0.00 0.00 66 1022.4
20260901180135 20 331 0.0 1.6 0.00 0.00 0.00 65 1022.3
20260901174629 20 331 0.0 4.8 0.00 0.00 0.00 62 1022.2
20260901173130 21 103 0.0 4.8 0.00 0.00 0.00 59 1022.1
20260901171633 22 33 0.0 3.2 0.00 0.00 0.00 56 1022.1
20260901170129 22 70 1.6 6.4 0.00 0.00 0.00 55 1022.1
20260901164631 23 229 3.2 9.7 0.00 0.00 0.00 53 1022.2
20260901163130 23 254 1.6 4.8 0.00 0.00 0.00 52 1022.1
20260901161630 23 304 3.2 11.3 0.00 0.00 0.00 52 1022.1
20260901160129 24 277 3.2 11.3 0.00 0.00 0.00 49 1022.0
20260901154633 24 209 3.2 12.9 0.00 0.00 0.00 48 1021.8
20260901153128 25 126 3.2 9.7 0.00 0.00 0.00 48 1021.8
20260901151629 25 276 3.2 8.0 0.00 0.00 0.00 48 1022.0
20260901150128 25 315 3.2 12.9 0.00 0.00 0.00 46 1022.0
20260901143130 23 65 0.0 3.2 0.00 0.00 0.00 52 1022.0
20260901141631 22 228 1.6 6.4 0.00 0.00 0.00 55 1022.1
20260901134631 24 234 3.2 16.1 0.00 0.00 0.00 51 1022.2
20260901133127 23 355 4.8 17.7 0.00 0.00 0.00 49 1022.4
20260901131634 23 332 4.8 12.9 0.00 0.00 0.00 49 1022.5
20260901130453 25 245 3.2 12.9 0.00 0.00 0.00 45 1022.6
20260901124956 25 324 3.2 12.9 0.00 0.00 0.00 47 1022.7
20260901123456 23 213 3.2 11.3 0.00 0.00 0.00 52 1022.8
20260901121956 23 164 1.6 9.7 0.00 0.00 0.00 51 1022.8
20260901120453 23 205 3.2 8.0 0.00 0.00 0.00 55 1022.7
20260901111952 24 215 3.2 12.9 0.00 0.00 0.00 52 1023.1
20260901110453 24 315 3.2 11.3 0.00 0.00 0.00 51 1023.2
20260901104956 23 154 3.2 11.3 0.00 0.00 0.00 58 1023.3
20260901103455 22 0 1.6 9.7 0.00 0.00 0.00 55 1023.3
20260901101955 22 245 3.2 12.9 0.00 0.00 0.00 53 1023.4
20260901100456 22 263 3.2 8.0 0.00 0.00 0.00 56 1023.4
20260901093454 22 230 3.2 12.9 0.00 0.00 0.00 55 1023.4
20260901091953 22 209 3.2 11.3 0.00 0.00 0.00 52 1023.4
20260901090453 22 54 1.6 11.3 0.00 0.00 0.00 56 1023.5
20260901084954 21 96 1.6 6.4 0.00 0.00 0.00 59 1023.6
20260901083455 22 227 1.6 11.3 0.00 0.00 0.00 57 1023.7
20260901080453 21 26 1.6 6.4 0.00 0.00 0.00 60 1023.4
20260901074953 21 271 1.6 11.3 0.00 0.00 0.00 64 1023.5
20260901073455 20 167 3.2 6.4 0.00 0.00 0.00 66 1023.5
20260901071953 19 230 1.6 6.4 0.00 0.00 0.00 68 1023.5
20260901064953 17 298 1.6 6.4 0.00 0.00 0.00 75 1023.5
20260901063454 16 198 1.6 6.4 0.00 0.00 0.00 78 1023.4
20260901054953 14 234 0.0 3.2 0.00 0.00 0.00 84 1023.5
20260901051951 13 234 0.0 1.6 0.00 0.00 0.00 86 1023.3
20260901050450 12 234 0.0 1.6 0.00 0.00 0.00 88 1023.1
20260901044950 12 234 0.0 0.0 0.00 0.00 0.00 88 1023.0
20260901043447 12 234 0.0 0.0 0.00 0.00 0.00 88 1023.0
20260901041948 12 234 0.0 0.0 0.00 0.00 0.00 86 1023.0
20260901040447 12 234 0.0 0.0 0.00 0.00 0.00 84 1023.0
20260901033447 14 234 0.0 3.2 0.00 0.00 0.00 79 1022.9
20260901030445 15 219 1.6 4.8 0.00 0.00 0.00 77 1023.0
20260901024946 15 225 1.6 6.4 0.00 0.00 0.00 78 1023.1
20260901023443 15 180 0.0 1.6 0.00 0.00 0.00 78 1023.2
20260901021942 15 180 0.0 1.6 0.00 0.00 0.00 77 1023.1
20260901014945 15 215 0.0 3.2 0.00 0.00 0.00 80 1022.8
20260901013444 15 215 0.0 1.6 0.00 0.00 0.00 80 1022.8
20260901011947 15 215 0.0 3.2 0.00 0.00 0.00 79 1022.8
20260901010445 15 227 0.0 3.2 0.00 0.00 0.00 79 1022.8
20260901004939 15 227 0.0 1.6 0.00 0.00 0.00 79 1022.8
20260901003437 15 227 0.0 0.0 0.00 0.00 0.00 82 1022.7
20260901001936 15 227 0.0 3.2 0.00 0.00 0.00 81 1022.9
20260901000436 15 272 0.0 1.6 0.00 0.00 0.00 80 1022.9
20260831234938 15 272 0.0 4.8 0.00 0.00 0.00 77 1022.8
20260831233436 14 272 0.0 1.6 0.00 0.00 0.00 78 1022.8
20260831231937 15 272 0.0 0.0 0.00 0.00 0.00 77 1022.9
20260831230436 15 272 0.0 4.8 0.00 0.00 0.00 76 1022.9
20260831224938 15 272 0.0 3.2 0.00 0.00 0.00 75 1022.9
20260831223436 15 272 0.0 3.2 0.00 0.00 0.00 75 1022.9
20260831220436 16 272 0.0 4.8 0.00 0.00 0.00 74 1022.8
20260831213433 17 211 3.2 12.9 0.00 0.00 0.00 71 1022.5
20260831211932 16 248 0.0 0.0 0.00 0.00 0.00 74 1022.3
20260831210430 17 248 0.0 0.0 0.00 0.00 0.00 73 1022.1